﻿測定場所 (Monitoring sites),日付 (Measurement date),時間 (Measurement time),線量率 最大値 (max) μGy/h,線量率 最小値 (min) μGy/h,線量率 平均値 (average) μGy/h,
新宿 (Shinjuku),2011-05-29,23:00～23:59,0.0649,0.0595,0.0618,
新宿 (Shinjuku),2011-05-29,22:00～22:59,0.0649,0.0583,0.0617,
新宿 (Shinjuku),2011-05-29,21:00～21:59,0.0641,0.0578,0.0613,
新宿 (Shinjuku),2011-05-29,20:00～20:59,0.0640,0.0586,0.0619,
新宿 (Shinjuku),2011-05-29,19:00～19:59,0.0644,0.0592,0.0619,
新宿 (Shinjuku),2011-05-29,18:00～18:59,0.0650,0.0590,0.0619,
新宿 (Shinjuku),2011-05-29,17:00～17:59,0.0654,0.0596,0.0620,
新宿 (Shinjuku),2011-05-29,16:00～16:59,0.0641,0.0582,0.0613,
新宿 (Shinjuku),2011-05-29,15:00～15:59,0.0642,0.0588,0.0610,
新宿 (Shinjuku),2011-05-29,14:00～14:59,0.0636,0.0587,0.0613,
新宿 (Shinjuku),2011-05-29,13:00～13:59,0.0643,0.0583,0.0610,
新宿 (Shinjuku),2011-05-29,12:00～12:59,0.0652,0.0589,0.0619,
新宿 (Shinjuku),2011-05-29,11:00～11:59,0.0660,0.0600,0.0625,
新宿 (Shinjuku),2011-05-29,10:00～10:59,0.0655,0.0589,0.0622,
新宿 (Shinjuku),2011-05-29,09:00～09:59,0.0652,0.0589,0.0619,
新宿 (Shinjuku),2011-05-29,08:00～08:59,0.0640,0.0591,0.0617,
新宿 (Shinjuku),2011-05-29,07:00～07:59,0.0643,0.0597,0.0621,
新宿 (Shinjuku),2011-05-29,06:00～06:59,0.0637,0.0579,0.0615,
新宿 (Shinjuku),2011-05-29,05:00～05:59,0.0652,0.0589,0.0614,
新宿 (Shinjuku),2011-05-29,04:00～04:59,0.0649,0.0589,0.0616,
新宿 (Shinjuku),2011-05-29,03:00～03:59,0.0642,0.0580,0.0612,
新宿 (Shinjuku),2011-05-29,02:00～02:59,0.0634,0.0589,0.0615,
新宿 (Shinjuku),2011-05-29,01:00～01:59,0.0655,0.0581,0.0611,
新宿 (Shinjuku),2011-05-29,00:00～00:59,0.0634,0.0580,0.0608,
新宿 (Shinjuku),2011-05-28,23:00～23:59,0.0628,0.0581,0.0604,
新宿 (Shinjuku),2011-05-28,22:00～22:59,0.0628,0.0573,0.0604,
新宿 (Shinjuku),2011-05-28,21:00～21:59,0.0638,0.0572,0.0608,
新宿 (Shinjuku),2011-05-28,20:00～20:59,0.0638,0.0573,0.0610,
新宿 (Shinjuku),2011-05-28,19:00～19:59,0.0642,0.0593,0.0618,
新宿 (Shinjuku),2011-05-28,18:00～18:59,0.0649,0.0587,0.0616,
新宿 (Shinjuku),2011-05-28,17:00～17:59,0.0637,0.0589,0.0614,
新宿 (Shinjuku),2011-05-28,16:00～16:59,0.0661,0.0600,0.0626,
新宿 (Shinjuku),2011-05-28,15:00～15:59,0.0666,0.0617,0.0633,
新宿 (Shinjuku),2011-05-28,14:00～14:59,0.0662,0.0612,0.0638,
新宿 (Shinjuku),2011-05-28,13:00～13:59,0.0669,0.0604,0.0640,
新宿 (Shinjuku),2011-05-28,12:00～12:59,0.0666,0.0614,0.0635,
新宿 (Shinjuku),2011-05-28,11:00～11:59,0.0666,0.0606,0.0633,
新宿 (Shinjuku),2011-05-28,10:00～10:59,0.0651,0.0593,0.0624,
新宿 (Shinjuku),2011-05-28,09:00～09:59,0.0643,0.0596,0.0621,
新宿 (Shinjuku),2011-05-28,08:00～08:59,0.0652,0.0600,0.0625,
新宿 (Shinjuku),2011-05-28,07:00～07:59,0.0655,0.0598,0.0628,
新宿 (Shinjuku),2011-05-28,06:00～06:59,0.0688,0.0614,0.0649,
新宿 (Shinjuku),2011-05-28,05:00～05:59,0.0689,0.0629,0.0659,
新宿 (Shinjuku),2011-05-28,04:00～04:59,0.0687,0.0632,0.0659,
新宿 (Shinjuku),2011-05-28,03:00～03:59,0.0687,0.0631,0.0662,
新宿 (Shinjuku),2011-05-28,02:00～02:59,0.0666,0.0602,0.0630,
新宿 (Shinjuku),2011-05-28,01:00～01:59,0.0654,0.0603,0.0628,
新宿 (Shinjuku),2011-05-28,00:00～00:59,0.0649,0.0596,0.0623,
新宿 (Shinjuku),2011-05-27,23:00～23:59,0.0650,0.0592,0.0618,
新宿 (Shinjuku),2011-05-27,22:00～22:59,0.0644,0.0579,0.0614,
新宿 (Shinjuku),2011-05-27,21:00～21:59,0.0635,0.0590,0.0610,
新宿 (Shinjuku),2011-05-27,20:00～20:59,0.0636,0.0593,0.0613,
新宿 (Shinjuku),2011-05-27,19:00～19:59,0.0635,0.0573,0.0610,
新宿 (Shinjuku),2011-05-27,18:00～18:59,0.0639,0.0583,0.0609,
新宿 (Shinjuku),2011-05-27,17:00～17:59,0.0629,0.0589,0.0609,
新宿 (Shinjuku),2011-05-27,16:00～16:59,0.0638,0.0585,0.0610,
新宿 (Shinjuku),2011-05-27,15:00～15:59,0.0639,0.0578,0.0608,
新宿 (Shinjuku),2011-05-27,14:00～14:59,0.0638,0.0551,0.0599,
新宿 (Shinjuku),2011-05-27,13:00～13:59,0.0638,0.0572,0.0608,
新宿 (Shinjuku),2011-05-27,12:00～12:59,0.0639,0.0578,0.0606,
新宿 (Shinjuku),2011-05-27,11:00～11:59,0.0635,0.0579,0.0608,
新宿 (Shinjuku),2011-05-27,10:00～10:59,0.0632,0.0589,0.0611,
新宿 (Shinjuku),2011-05-27,09:00～09:59,0.0635,0.0586,0.0611,
新宿 (Shinjuku),2011-05-27,08:00～08:59,0.0630,0.0581,0.0607,
新宿 (Shinjuku),2011-05-27,07:00～07:59,0.0635,0.0572,0.0610,
新宿 (Shinjuku),2011-05-27,06:00～06:59,0.0631,0.0569,0.0609,
新宿 (Shinjuku),2011-05-27,05:00～05:59,0.0642,0.0572,0.0606,
新宿 (Shinjuku),2011-05-27,04:00～04:59,0.0647,0.0578,0.0611,
新宿 (Shinjuku),2011-05-27,03:00～03:59,0.0642,0.0589,0.0619,
新宿 (Shinjuku),2011-05-27,02:00～02:59,0.0671,0.0603,0.0631,
新宿 (Shinjuku),2011-05-27,01:00～01:59,0.0658,0.0600,0.0630,
新宿 (Shinjuku),2011-05-27,00:00～00:59,0.0651,0.0593,0.0621,
新宿 (Shinjuku),2011-05-26,23:00～23:59,0.0638,0.0576,0.0610,
新宿 (Shinjuku),2011-05-26,22:00～22:59,0.0642,0.0583,0.0610,
新宿 (Shinjuku),2011-05-26,21:00～21:59,0.0652,0.0586,0.0608,
新宿 (Shinjuku),2011-05-26,20:00～20:59,0.0638,0.0580,0.0607,
新宿 (Shinjuku),2011-05-26,19:00～19:59,0.0644,0.0589,0.0611,
新宿 (Shinjuku),2011-05-26,18:00～18:59,0.0627,0.0585,0.0610,
新宿 (Shinjuku),2011-05-26,17:00～17:59,0.0633,0.0579,0.0604,
新宿 (Shinjuku),2011-05-26,16:00～16:59,0.0649,0.0586,0.0612,
新宿 (Shinjuku),2011-05-26,15:00～15:59,0.0634,0.0579,0.0610,
新宿 (Shinjuku),2011-05-26,14:00～14:59,0.0637,0.0583,0.0610,
新宿 (Shinjuku),2011-05-26,13:00～13:59,0.0656,0.0577,0.0610,
新宿 (Shinjuku),2011-05-26,12:00～12:59,0.0635,0.0586,0.0612,
新宿 (Shinjuku),2011-05-26,11:00～11:59,0.0649,0.0569,0.0607,
新宿 (Shinjuku),2011-05-26,10:00～10:59,0.0642,0.0585,0.0612,
新宿 (Shinjuku),2011-05-26,09:00～09:59,0.0635,0.0587,0.0613,
新宿 (Shinjuku),2011-05-26,08:00～08:59,0.0635,0.0583,0.0613,
新宿 (Shinjuku),2011-05-26,07:00～07:59,0.0644,0.0586,0.0615,
新宿 (Shinjuku),2011-05-26,06:00～06:59,0.0645,0.0589,0.0616,
新宿 (Shinjuku),2011-05-26,05:00～05:59,0.0644,0.0584,0.0613,
新宿 (Shinjuku),2011-05-26,04:00～04:59,0.0642,0.0585,0.0609,
新宿 (Shinjuku),2011-05-26,03:00～03:59,0.0642,0.0576,0.0612,
新宿 (Shinjuku),2011-05-26,02:00～02:59,0.0632,0.0583,0.0612,
新宿 (Shinjuku),2011-05-26,01:00～01:59,0.0642,0.0583,0.0609,
新宿 (Shinjuku),2011-05-26,00:00～00:59,0.0634,0.0589,0.0609,
新宿 (Shinjuku),2011-05-25,23:00～23:59,0.0643,0.0584,0.0610,
新宿 (Shinjuku),2011-05-25,22:00～22:59,0.0635,0.0589,0.0610,
新宿 (Shinjuku),2011-05-25,21:00～21:59,0.0635,0.0580,0.0610,
新宿 (Shinjuku),2011-05-25,20:00～20:59,0.0642,0.0574,0.0607,
新宿 (Shinjuku),2011-05-25,19:00～19:59,0.0638,0.0581,0.0606,
新宿 (Shinjuku),2011-05-25,18:00～18:59,0.0650,0.0587,0.0614,
新宿 (Shinjuku),2011-05-25,17:00～17:59,0.0634,0.0586,0.0608,
新宿 (Shinjuku),2011-05-25,16:00～16:59,0.0641,0.0585,0.0608,
新宿 (Shinjuku),2011-05-25,15:00～15:59,0.0638,0.0586,0.0616,
新宿 (Shinjuku),2011-05-25,14:00～14:59,0.0638,0.0583,0.0612,
新宿 (Shinjuku),2011-05-25,13:00～13:59,0.0638,0.0591,0.0617,
新宿 (Shinjuku),2011-05-25,12:00～12:59,0.0649,0.0587,0.0614,
新宿 (Shinjuku),2011-05-25,11:00～11:59,0.0646,0.0586,0.0613,
新宿 (Shinjuku),2011-05-25,10:00～10:59,0.0647,0.0573,0.0613,
新宿 (Shinjuku),2011-05-25,09:00～09:59,0.0637,0.0591,0.0616,
新宿 (Shinjuku),2011-05-25,08:00～08:59,0.0640,0.0590,0.0619,
新宿 (Shinjuku),2011-05-25,07:00～07:59,0.0649,0.0590,0.0619,
新宿 (Shinjuku),2011-05-25,06:00～06:59,0.0650,0.0597,0.0619,
新宿 (Shinjuku),2011-05-25,05:00～05:59,0.0642,0.0583,0.0614,
新宿 (Shinjuku),2011-05-25,04:00～04:59,0.0638,0.0583,0.0611,
新宿 (Shinjuku),2011-05-25,03:00～03:59,0.0654,0.0585,0.0613,
新宿 (Shinjuku),2011-05-25,02:00～02:59,0.0631,0.0582,0.0612,
新宿 (Shinjuku),2011-05-25,01:00～01:59,0.0659,0.0582,0.0608,
新宿 (Shinjuku),2011-05-25,00:00～00:59,0.0632,0.0584,0.0607,
新宿 (Shinjuku),2011-05-24,23:00～23:59,0.0636,0.0569,0.0611,
新宿 (Shinjuku),2011-05-24,22:00～22:59,0.0651,0.0581,0.0610,
新宿 (Shinjuku),2011-05-24,21:00～21:59,0.0628,0.0585,0.0607,
新宿 (Shinjuku),2011-05-24,20:00～20:59,0.0632,0.0588,0.0606,
新宿 (Shinjuku),2011-05-24,19:00～19:59,0.0641,0.0585,0.0608,
新宿 (Shinjuku),2011-05-24,18:00～18:59,0.0642,0.0581,0.0611,
新宿 (Shinjuku),2011-05-24,17:00～17:59,0.0641,0.0588,0.0613,
新宿 (Shinjuku),2011-05-24,16:00～16:59,0.0644,0.0596,0.0613,
新宿 (Shinjuku),2011-05-24,15:00～15:59,0.0635,0.0589,0.0613,
新宿 (Shinjuku),2011-05-24,14:00～14:59,0.0648,0.0593,0.0613,
新宿 (Shinjuku),2011-05-24,13:00～13:59,0.0638,0.0580,0.0613,
新宿 (Shinjuku),2011-05-24,12:00～12:59,0.0653,0.0594,0.0622,
新宿 (Shinjuku),2011-05-24,11:00～11:59,0.0664,0.0605,0.0631,
新宿 (Shinjuku),2011-05-24,10:00～10:59,0.0673,0.0605,0.0632,
新宿 (Shinjuku),2011-05-24,09:00～09:59,0.0679,0.0629,0.0649,
新宿 (Shinjuku),2011-05-24,08:00～08:59,0.0666,0.0611,0.0635,
新宿 (Shinjuku),2011-05-24,07:00～07:59,0.0656,0.0609,0.0635,
新宿 (Shinjuku),2011-05-24,06:00～06:59,0.0656,0.0619,0.0640,
新宿 (Shinjuku),2011-05-24,05:00～05:59,0.0663,0.0609,0.0635,
新宿 (Shinjuku),2011-05-24,04:00～04:59,0.0669,0.0607,0.0638,
新宿 (Shinjuku),2011-05-24,03:00～03:59,0.0669,0.0607,0.0640,
新宿 (Shinjuku),2011-05-24,02:00～02:59,0.0657,0.0607,0.0633,
新宿 (Shinjuku),2011-05-24,01:00～01:59,0.0647,0.0593,0.0624,
新宿 (Shinjuku),2011-05-24,00:00～00:59,0.0661,0.0580,0.0621,
新宿 (Shinjuku),2011-05-23,23:00～23:59,0.0656,0.0591,0.0623,
新宿 (Shinjuku),2011-05-23,22:00～22:59,0.0652,0.0595,0.0622,
新宿 (Shinjuku),2011-05-23,21:00～21:59,0.0658,0.0596,0.0630,
新宿 (Shinjuku),2011-05-23,20:00～20:59,0.0666,0.0603,0.0633,
新宿 (Shinjuku),2011-05-23,19:00～19:59,0.0656,0.0605,0.0630,
新宿 (Shinjuku),2011-05-23,18:00～18:59,0.0653,0.0609,0.0627,
新宿 (Shinjuku),2011-05-23,17:00～17:59,0.0651,0.0589,0.0618,
新宿 (Shinjuku),2011-05-23,16:00～16:59,0.0656,0.0600,0.0621,
新宿 (Shinjuku),2011-05-23,15:00～15:59,0.0648,0.0602,0.0622,
新宿 (Shinjuku),2011-05-23,14:00～14:59,0.0647,0.0588,0.0620,
新宿 (Shinjuku),2011-05-23,13:00～13:59,0.0642,0.0596,0.0619,
新宿 (Shinjuku),2011-05-23,12:00～12:59,0.0642,0.0589,0.0617,
新宿 (Shinjuku),2011-05-23,11:00～11:59,0.0643,0.0595,0.0622,
新宿 (Shinjuku),2011-05-23,10:00～10:59,0.0656,0.0599,0.0627,
新宿 (Shinjuku),2011-05-23,09:00～09:59,0.0651,0.0596,0.0618,
新宿 (Shinjuku),2011-05-23,08:00～08:59,0.0652,0.0586,0.0613,
新宿 (Shinjuku),2011-05-23,07:00～07:59,0.0647,0.0591,0.0616,
新宿 (Shinjuku),2011-05-23,06:00～06:59,0.0651,0.0593,0.0612,
新宿 (Shinjuku),2011-05-23,05:00～05:59,0.0661,0.0586,0.0613,
新宿 (Shinjuku),2011-05-23,04:00～04:59,0.0639,0.0583,0.0613,
新宿 (Shinjuku),2011-05-23,03:00～03:59,0.0642,0.0587,0.0613,
新宿 (Shinjuku),2011-05-23,02:00～02:59,0.0643,0.0569,0.0613,
新宿 (Shinjuku),2011-05-23,01:00～01:59,0.0640,0.0583,0.0615,
新宿 (Shinjuku),2011-05-23,00:00～00:59,0.0648,0.0594,0.0618,
